Simultaneous Nadir Overpasses (SNOs) Predictions

Prediction of SNOs between NOAA-21 and PACE Satellite Orbit:

Table of predicted SNOs for the next 14.0 days since TLE Epoch: 5/4/2024
Index Date (NOAA-21) Time (NOAA-21) Lat,Lon (NOAA-21) SZA (NOAA-21 ) Date (PACE) Time (PACE) Lat,Lon (PACE) SZA (PACE ) Distance(km) Time Diff (sec)
1 05/05/2024 12:55:53 79.77, -50.99 65.33 05/05/2024 12:56:54 79.78, -51.01 65.31 0.62 61
2 05/05/2024 13:46:30 -79.53, 118.44 115.11 05/05/2024 13:45:57 -79.54, 118.38 115.08 1.41 33
3 05/07/2024 17:22:16 79.73,-117.22 64.65 05/07/2024 17:23:13 79.75,-117.36 64.65 3.18 57
4 05/07/2024 18:12:56 -79.59, 51.38 115.62 05/07/2024 18:12:18 -79.58, 51.52 115.62 2.77 38
5 05/09/2024 21:48:40 79.73, 176.24 64.06 05/09/2024 21:49:32 79.73, 176.16 64.05 1.65 52
6 05/09/2024 22:39:18 -79.52, -14.60 116.32 05/09/2024 22:38:36 -79.52, -14.68 116.29 1.78 42
7 05/12/2024 02:15:04 79.72, 109.67 63.50 05/12/2024 02:15:51 79.73, 109.56 63.50 2.43 47
8 05/12/2024 03:05:41 -79.48, -80.90 116.94 05/12/2024 03:04:54 -79.49, -81.00 116.90 2.22 47
9 05/14/2024 06:41:29 79.76, 42.79 63.03 05/14/2024 06:42:10 79.75, 42.83 63.00 0.95 41
10 05/14/2024 07:32:07 -79.55,-148.04 117.36 05/14/2024 07:31:14 -79.54,-147.97 117.34 1.47 53
11 05/16/2024 11:07:53 79.76, -23.84 62.53 05/16/2024 11:08:28 79.75, -23.75 62.50 2.01 35



Historial Predications of SNOs between NOAA-21 and PACE
